This is the latest recevied weather packets stored in our database for station/object W0BJ-1. If no packets are shown the sender has not sent any weather packets the latest 10 day(s).
| Time | Temp. | Humidity | Pressure | Rain* | Wind** | Luminosity | Snow |
|---|---|---|---|---|---|---|---|
| 1777731642 | 11.67° C | 72% | 1020.3 hPa | 0 mm | - | 554 W/m² | - |
| 1777730740 | 11.11° C | 71% | 1020.3 hPa | 0 mm | - | 320 W/m² | - |
| 1777730453 | 11.11° C | 73% | 1020.3 hPa | 0 mm | - | 294 W/m² | - |
| 1777728344 | 10° C | 77% | 1020 hPa | 0 mm | - | 232 W/m² | - |
| 1777727440 | 9.44° C | 78% | 1019.7 hPa | 0 mm | - | 248 W/m² | - |
| 1777726853 | 8.89° C | 80% | 1019.6 hPa | 0 mm | - | 237 W/m² | - |
| 1777725640 | 7.78° C | 83% | 1019.8 hPa | 0 mm | - | 179 W/m² | - |
| 1777724740 | 7.22° C | 85% | 1019.5 hPa | 0 mm | - | 46 W/m² | - |
| 1777724440 | 7.22° C | 85% | 1019.4 hPa | 0 mm | - | 74 W/m² | - |
| 1777722358 | 6.11° C | 85% | 1019.1 hPa | 0 mm | - | 26 W/m² | - |
| 1777721144 | 6.67° C | 84% | 1018.8 hPa | 0 mm | - | 14 W/m² | - |
| 1777717240 | 7.22° C | 83% | 1018.3 hPa | 0 mm | - | 0 W/m² | - |
| 1777716951 | 7.22° C | 83% | 1018.1 hPa | 0 mm | - | 0 W/m² | - |
| 1777715740 | 7.22° C | 83% | 1018.2 hPa | 0 mm | - | 0 W/m² | - |
| 1777713039 | 7.22° C | 81% | 1018.1 hPa | 0 mm | - | 0 W/m² | - |
| 1777711548 | 7.78° C | 80% | 1017.9 hPa | 0 mm | - | 0 W/m² | - |
| 1777710944 | 7.78° C | 79% | 1018 hPa | 0 mm | - | 0 W/m² | - |
| 1777708863 | 7.78° C | 80% | 1017.9 hPa | 0 mm | - | 0 W/m² | - |
| 1777705539 | 7.78° C | 80% | 1018 hPa | 0 mm | - | 0 W/m² | - |
| 1777704358 | 7.78° C | 81% | 1018.1 hPa | 0 mm | - | 0 W/m² | - |
| 1777702840 | 7.22° C | 81% | 1018.1 hPa | 0 mm | - | 0 W/m² | - |
| 1777702239 | 7.22° C | 81% | 1018.2 hPa | 0 mm | - | 0 W/m² | - |
| 1777701940 | 7.22° C | 81% | 1018.1 hPa | 0 mm | - | 0 W/m² | - |
| 1777700440 | 7.78° C | 78% | 1018.1 hPa | 0 mm | - | 0 W/m² | - |
| 1777698950 | 8.33° C | 76% | 1017.9 hPa | 0 mm | - | 0 W/m² | - |
* Rain latest hour (hover to see other rain measurements)
** Current wind speed in m/s (hover to see current wind gust speed)